This is the latest recevied weather packets stored in our database for station/object W1CAT. If no packets are shown the sender has not sent any weather packets the latest 10 day(s).
| Time | Temp. | Humidity | Pressure | Rain* | Wind** | Luminosity | Snow |
|---|---|---|---|---|---|---|---|
| 1777869195 | 5.56° C | 51% | - | 0 mm | - | - | - |
| 1777868893 | 5.56° C | 52% | - | 0 mm | - | - | - |
| 1777868589 | 5.56° C | 49% | - | 0 mm | - | - | - |
| 1777868285 | 6.11° C | 49% | - | 0 mm | - | - | - |
| 1777867981 | 6.67° C | 47% | - | 0 mm | - | - | - |
| 1777867678 | 6.11° C | 47% | - | 0 mm | - | - | - |
| 1777867375 | 6.11° C | 47% | - | 0 mm | - | - | - |
| 1777867071 | 6.67° C | 47% | - | 0 mm | - | - | - |
| 1777866768 | 6.67° C | 47% | - | 0 mm | - | - | - |
| 1777866466 | 7.22° C | 43% | - | 0 mm | - | - | - |
| 1777866163 | 7.78° C | 43% | - | 0 mm | - | - | - |
| 1777865860 | 7.78° C | 41% | - | 0 mm | - | - | - |
| 1777865558 | 7.78° C | 41% | - | 0 mm | - | - | - |
| 1777865255 | 7.22° C | 42% | - | 0 mm | - | - | - |
| 1777864952 | 7.22° C | 45% | - | 0 mm | - | - | - |
| 1777864648 | 7.22° C | 44% | - | 0 mm | - | - | - |
| 1777864346 | 7.78° C | 46% | - | 0 mm | - | - | - |
| 1777864041 | 7.22° C | 45% | - | 0 mm | - | - | - |
| 1777863739 | 7.78° C | 44% | - | 0 mm | - | - | - |
| 1777863435 | 8.33° C | 43% | - | 0 mm | - | - | - |
| 1777863131 | 8.89° C | 42% | - | 0 mm | - | - | - |
| 1777862829 | 8.89° C | 41% | - | 0 mm | - | - | - |
| 1777862525 | 9.44° C | 43% | - | 0 mm | - | - | - |
| 1777862222 | 9.44° C | 41% | - | 0 mm | - | - | - |
| 1777861918 | 8.89° C | 42% | - | 0 mm | - | - | - |
* Rain latest hour (hover to see other rain measurements)
** Current wind speed in m/s (hover to see current wind gust speed)